User: anonymous   Login
Location: Unspecified
(0.0000°N, 0.0000°E)
Time: 03:36:35
(UTC+00:00)
Language:

AAUSAT CUBESAT 2 - Orbit

View from above orbital plane
View from above orbital plane
View from above satellite
View from above satellite

Ground track
Ground track

The orbit data is extracted from the following two-line orbital elements,

1 32788U 08021F   17112.63756324 +.00001416 +00000-0 +13862-3 0  9992
2 32788 097.5645 150.7006 0010818 322.6569 037.3899 14.93794280487382
Epoch (UTC): 22 April 2017 15:18:05
Eccentricity: 0.0010818
inclination: 97.5645°
perigee height: 578 km
apogee height: 593 km
right ascension of ascending node: 150.7006°
argument of perigee: 322.6569°
revolutions per day: 14.93794280
mean anomaly at epoch: 37.3899°
orbit number at epoch: 48738

The dashed part of the orbit path shows where the satellite is in the earth's shadow,  

DLR